sat.trackr.live / text

‹ back to catalog

STARLINK-36584

NORAD 67547 · 2026-014R

PAYLOAD ACTIVE UNKNOWN

§ Identity

Operator
Country
US
Launch date
2026-01-22
Launch site
AFWTR
Launch vehicle
Mass (kg)
RCS (m²)

Purposes: comms

External: N2YO · Heavens-Above · Gunter

§ Orbital elements

Epoch: 2026-05-25T03:19:25.191264Z

Period
93.91 min
Inclination
97.2882°
Eccentricity
0.0001264
Mean motion
15.33450844 rev/d
Perigee alt
464.7 km
Apogee alt
466.4 km
Semi-major
6,843.7 km
B*
5.6224e-4
RAAN
32.2519°
Arg perigee
89.2227°
Mean anomaly
270.9161°
Rev number
2,050

§ Raw data

STARLINK-365841 67547U 26014R   26145.13848601  .00018123  00000+0  56224-3 0  99972 67547  97.2882  32.2519 0001264  89.2227 270.9161 15.33450844 20502

JSON: /api/v1/satellites/67547 · /tle

For live sub-satellite position, see the globe view (requires WebGL).

§ Visibility from observer

Set your observer location to see the next 7 days of passes ≥ 10°. The values pass through the URL so the page stays shareable.

No JS? Fill the form by hand. The geolocation button needs JavaScript.